Location: Hilton Head Island
(32.2163°N, 80.7526°W)
Time: 01:10:43
(UTC-05:00)

Vanguard 1 - Pass Details

Date: 18 February 2026
Orbit: 653 x 3818 km, 34.2° (Epoch: 5 March)

Event Time Altitude Azimuth Distance (km) Brightness Sun altitude
Rises 19:18:19 0° 283° (WNW) 5,844 15.5 -14.7°
Reaches altitude 10° 19:21:30 10° 283° (WNW) 5,170 14.9 -15.4°
Maximum altitude 19:38:40 86° 198° (SSW) 3,495 12.7 -19.0°
Enters shadow 19:56:45 23° 112° (ESE) 5,805 13.4 -22.8°
Drops below altitude 10° 20:02:38 10° 112° (ESE) 6,821 - -24.1°
Sets 20:07:36 0° 112° (ESE) 7,689 - -25.1°
